When you browse on this site, cookies collect data to enhance your experience and personalize the content and advertising you see.
Visit our Privacy Policy to learn more. By continuing to use the site, you agree to this use of cookies and data.
  • In Österreich
  • Länderverzeichnis
  • Für 7 Tage
  • Wassertemperatur
  • Satellitenkarten
  • Wetterkarte
  • News
  • Widgets
  • user-avatar
    Anmelden

    Stündliche Wetter Roraima

    Heute, 21 März, Donnerstag

    Zeit Temperatur Niederschläge Wind Luftdruck Luftfeuchtigkeit
    00:00 +28°C° 0 mm 1 m/S 736 mmHg 55%
    01:00 +27°C° 0 mm 1 m/S 736 mmHg 58%
    02:00 +27°C° 0 mm 1 m/S 735 mmHg 61%
    03:00 +24°C° 0 mm 0 m/S 735 mmHg 65%
    04:00 +24°C° 0 mm 0 m/S 735 mmHg 69%
    05:00 +23°C° 0 mm 0 m/S 735 mmHg 73%
    06:00 +25°C° 0 mm 0 m/S 736 mmHg 68%
    07:00 +28°C° 0 mm 1 m/S 736 mmHg 64%
    08:00 +29°C° 0 mm 1 m/S 737 mmHg 60%
    09:00 +32°C° 0 mm 1 m/S 737 mmHg 53%
    10:00 +35°C° 0 mm 2 m/S 737 mmHg 46%
    11:00 +37°C° 0 mm 2 m/S 737 mmHg 38%
    12:00 +37°C° 0 mm 2 m/S 736 mmHg 37%
    13:00 +37°C° 0 mm 1 m/S 735 mmHg 35%
    14:00 +37°C° 0 mm 1 m/S 734 mmHg 34%
    15:00 +37°C° 0 mm 1 m/S 734 mmHg 34%
    16:00 +37°C° 0 mm 1 m/S 733 mmHg 35%
    17:00 +34°C° 0 mm 0 m/S 733 mmHg 35%
    18:00 +33°C° 0 mm 0 m/S 733 mmHg 38%
    19:00 +32°C° 0 mm 0 m/S 734 mmHg 41%
    20:00 +30°C° 0 mm 0 m/S 734 mmHg 44%
    21:00 +29°C° 0 mm 0 m/S 735 mmHg 47%
    22:00 +28°C° 0 mm 0 m/S 735 mmHg 51%
    23:00 +29°C° 0 mm 1 m/S 736 mmHg 54%

    Morgen, 22 März, Freitag

    Zeit Temperatur Niederschläge Wind Luftdruck Luftfeuchtigkeit
    00:00 +26°C° 0.2 mm 0 m/S 736 mmHg 61%
    01:00 +25°C° 0.2 mm 0 m/S 735 mmHg 69%
    02:00 +24°C° 0.2 mm 0 m/S 735 mmHg 76%
    03:00 +24°C° 0 mm 0 m/S 735 mmHg 77%
    04:00 +24°C° 0 mm 0 m/S 735 mmHg 77%
    05:00 +24°C° 0 mm 0 m/S 735 mmHg 78%
    06:00 +25°C° 0 mm 0 m/S 736 mmHg 73%
    07:00 +28°C° 0 mm 1 m/S 737 mmHg 68%
    08:00 +29°C° 0 mm 1 m/S 738 mmHg 64%
    09:00 +31°C° 0 mm 1 m/S 738 mmHg 55%
    10:00 +34°C° 0 mm 2 m/S 738 mmHg 46%
    11:00 +37°C° 0 mm 2 m/S 738 mmHg 37%
    12:00 +38°C° 0 mm 2 m/S 737 mmHg 35%
    13:00 +39°C° 0 mm 2 m/S 735 mmHg 32%
    14:00 +40°C° 0 mm 2 m/S 734 mmHg 30%
    15:00 +39°C° 0 mm 1 m/S 734 mmHg 30%
    16:00 +39°C° 0 mm 1 m/S 733 mmHg 31%
    17:00 +37°C° 0 mm 1 m/S 733 mmHg 31%
    18:00 +35°C° 0 mm 1 m/S 733 mmHg 35%
    19:00 +33°C° 0 mm 1 m/S 734 mmHg 39%
    20:00 +31°C° 0 mm 1 m/S 734 mmHg 43%
    21:00 +30°C° 0 mm 1 m/S 735 mmHg 46%
    22:00 +27°C° 0 mm 0 m/S 735 mmHg 49%
    23:00 +26°C° 0 mm 0 m/S 736 mmHg 52%

    übermorgen, 23 März, Samstag

    Zeit Temperatur Niederschläge Wind Luftdruck Luftfeuchtigkeit
    00:00 +25°C° 0 mm 0 m/S 736 mmHg 55%
    01:00 +25°C° 0 mm 0 m/S 735 mmHg 57%
    02:00 +24°C° 0 mm 0 m/S 735 mmHg 60%
    03:00 +24°C° 0 mm 0 m/S 735 mmHg 61%
    04:00 +24°C° 0 mm 0 m/S 735 mmHg 63%
    05:00 +25°C° 0 mm 1 m/S 736 mmHg 64%
    06:00 +27°C° 0 mm 1 m/S 736 mmHg 62%
    07:00 +28°C° 0 mm 2 m/S 737 mmHg 60%
    08:00 +30°C° 0 mm 2 m/S 738 mmHg 57%
    09:00 +32°C° 0 mm 2 m/S 738 mmHg 50%
    10:00 +35°C° 0 mm 2 m/S 738 mmHg 43%
    11:00 +37°C° 0 mm 2 m/S 738 mmHg 37%
    12:00 +38°C° 0 mm 2 m/S 737 mmHg 34%
    13:00 +39°C° 0 mm 2 m/S 736 mmHg 32%
    14:00 +40°C° 0 mm 2 m/S 734 mmHg 29%
    15:00 +39°C° 0 mm 2 m/S 734 mmHg 30%
    16:00 +39°C° 0 mm 1 m/S 733 mmHg 31%
    17:00 +37°C° 0 mm 1 m/S 733 mmHg 31%
    18:00 +35°C° 0 mm 1 m/S 733 mmHg 36%
    19:00 +33°C° 0 mm 1 m/S 734 mmHg 42%
    20:00 +31°C° 0 mm 1 m/S 734 mmHg 47%
    21:00 +30°C° 0 mm 1 m/S 735 mmHg 50%
    22:00 +29°C° 0 mm 1 m/S 735 mmHg 54%
    23:00 +26°C° 0 mm 0 m/S 736 mmHg 57%

    24 März, Sonntag

    Zeit Temperatur Niederschläge Wind Luftdruck Luftfeuchtigkeit
    00:00 +26°C° 0 mm 0 m/S 736 mmHg 58%
    01:00 +28°C° 0 mm 1 m/S 735 mmHg 59%
    02:00 +28°C° 0 mm 1 m/S 735 mmHg 59%
    03:00 +25°C° 0 mm 0 m/S 735 mmHg 62%
    04:00 +24°C° 0 mm 0 m/S 736 mmHg 65%
    05:00 +24°C° 0 mm 0 m/S 736 mmHg 68%
    06:00 +25°C° 0 mm 0 m/S 736 mmHg 65%
    07:00 +28°C° 0 mm 1 m/S 737 mmHg 62%
    08:00 +29°C° 0 mm 1 m/S 738 mmHg 60%
    09:00 +31°C° 0 mm 1 m/S 738 mmHg 52%
    10:00 +34°C° 0 mm 2 m/S 738 mmHg 45%
    11:00 +36°C° 0 mm 2 m/S 738 mmHg 38%
    12:00 +37°C° 0 mm 2 m/S 737 mmHg 36%
    13:00 +38°C° 0 mm 2 m/S 736 mmHg 33%
    14:00 +39°C° 0 mm 2 m/S 734 mmHg 31%
    15:00 +38°C° 0 mm 2 m/S 734 mmHg 32%
    16:00 +37°C° 0 mm 1 m/S 734 mmHg 33%
    17:00 +36°C° 0 mm 1 m/S 733 mmHg 34%
    18:00 +34°C° 0 mm 1 m/S 734 mmHg 39%
    19:00 +32°C° 0 mm 1 m/S 734 mmHg 45%
    20:00 +27°C° 0 mm 0 m/S 734 mmHg 50%
    21:00 +27°C° 0 mm 0 m/S 735 mmHg 50%
    22:00 +27°C° 0 mm 0 m/S 735 mmHg 51%
    23:00 +26°C° 0 mm 0 m/S 736 mmHg 52%

    25 März, Montag

    Zeit Temperatur Niederschläge Wind Luftdruck Luftfeuchtigkeit
    00:00 +26°C° 0 mm 0 m/S 735 mmHg 53%
    01:00 +26°C° 0 mm 0 m/S 735 mmHg 55%
    02:00 +26°C° 0 mm 0 m/S 735 mmHg 57%
    03:00 +26°C° 0 mm 0 m/S 735 mmHg 58%
    04:00 +25°C° 0 mm 0 m/S 735 mmHg 60%
    05:00 +25°C° 0 mm 0 m/S 735 mmHg 61%
    06:00 +26°C° 0 mm 0 m/S 736 mmHg 59%
    07:00 +29°C° 0 mm 1 m/S 737 mmHg 57%
    08:00 +30°C° 0 mm 1 m/S 737 mmHg 54%
    09:00 +32°C° 0 mm 2 m/S 737 mmHg 49%
    10:00 +35°C° 0 mm 2 m/S 737 mmHg 44%
    11:00 +36°C° 0 mm 2 m/S 737 mmHg 39%
    12:00 +37°C° 0 mm 2 m/S 736 mmHg 37%
    13:00 +36°C° 0 mm 1 m/S 735 mmHg 36%
    14:00 +36°C° 0 mm 1 m/S 734 mmHg 35%
    15:00 +36°C° 0 mm 1 m/S 733 mmHg 34%
    16:00 +37°C° 0 mm 1 m/S 733 mmHg 33%
    17:00 +37°C° 0 mm 1 m/S 733 mmHg 32%
    18:00 +35°C° 0 mm 1 m/S 733 mmHg 38%
    19:00 +30°C° 0 mm 0 m/S 733 mmHg 43%
    20:00 +28°C° 0 mm 0 m/S 734 mmHg 48%
    21:00 +27°C° 0 mm 0 m/S 734 mmHg 50%
    22:00 +29°C° 0 mm 1 m/S 735 mmHg 52%
    23:00 +29°C° 0 mm 1 m/S 735 mmHg 54%

    26 März, Dienstag

    Zeit Temperatur Niederschläge Wind Luftdruck Luftfeuchtigkeit
    00:00 +28°C° 0 mm 1 m/S 735 mmHg 56%
    01:00 +26°C° 0 mm 0 m/S 735 mmHg 59%
    02:00 +25°C° 0 mm 0 m/S 734 mmHg 61%
    03:00 +25°C° 0 mm 0 m/S 735 mmHg 64%
    04:00 +24°C° 0 mm 0 m/S 735 mmHg 66%
    05:00 +24°C° 0 mm 0 m/S 735 mmHg 69%
    06:00 +27°C° 0 mm 1 m/S 736 mmHg 65%
    07:00 +28°C° 0 mm 1 m/S 737 mmHg 61%
    08:00 +29°C° 0 mm 2 m/S 738 mmHg 56%
    09:00 +31°C° 0 mm 2 m/S 737 mmHg 51%
    10:00 +34°C° 0 mm 2 m/S 737 mmHg 46%
    11:00 +36°C° 0 mm 2 m/S 737 mmHg 41%
    12:00 +37°C° 0 mm 2 m/S 736 mmHg 38%
    13:00 +38°C° 0 mm 2 m/S 735 mmHg 35%
    14:00 +39°C° 0 mm 2 m/S 734 mmHg 31%
    15:00 +39°C° 0 mm 2 m/S 734 mmHg 32%
    16:00 +37°C° 0 mm 1 m/S 733 mmHg 32%
    17:00 +37°C° 0 mm 1 m/S 733 mmHg 32%
    18:00 +35°C° 0 mm 1 m/S 733 mmHg 38%
    19:00 +33°C° 0 mm 1 m/S 734 mmHg 44%
    20:00 +30°C° 0 mm 1 m/S 734 mmHg 50%
    21:00 +30°C° 0 mm 1 m/S 735 mmHg 52%
    22:00 +29°C° 0 mm 1 m/S 735 mmHg 54%
    23:00 +28°C° 0 mm 1 m/S 735 mmHg 56%
    Mehr zeigen